Regional Weather Roundup
Issued by NWS

Home | Current Version | Previous Version | Text Only | Print | Product List | Glossary On
Versions: 1 2 3 4 5 6 7 8 9 10 11 12 13 14 15 16 17 18 19 20 21 22 23 24 25 26 27 28 29 30 31 32 33 34 35 36 37 38 39 40 41 42 43 44 45 46 47 48 49 50
000
ASUS43 KLSX 280659
RWRMO

WEATHER SUMMARY FOR MISSOURI
NATIONAL WEATHER SERVICE SPRINGFIELD MO
200 AM CDT THU AUG 28 2014

NOTE: "FAIR" INDICATES FEW OR NO CLOUDS BELOW 12,000 FEET WITH NO
       SIGNIFICANT WEATHER AND/OR OBSTRUCTIONS TO VISIBILITY.
       CURRENT SKY AND/OR WEATHER CONDITIONS ARE NOT AVAILABLE FOR
       CHILLICOTHE AND FARMINGTON.

MOZ001>031-035>038-043-044-053-054-280800-
...NORTHERN AND WESTERN MISSOURI...

CITY           SKY/WX    TMP DP  RH WIND       PRES   REMARKS
KANSAS CTY INT CLOUDY    76  71  85 E10       30.00F
KANSAS C DTWN  MOCLDY    79  73  82 E7        29.99F
LEE`S SUMMIT   PTCLDY    75  72  90 E7        30.01F
ST JOSEPH      CLOUDY    74  70  87 SE7       29.99F
KIRKSVILLE     MOCLDY    71  69  93 NE7       30.06F

$$
MOZ066>068-077>081-088>096-101>105-280800-
...SOUTHWEST MISSOURI...

CITY           SKY/WX    TMP DP  RH WIND       PRES   REMARKS
SPRINGFIELD    CLEAR     75  69  81 S8        30.04F
JOPLIN         CLEAR     76  69  79 S7        30.01F

$$
MOZ032>034-039>042-045>050-055>058-069>072-280800-
...CENTRAL MISSOURI...

CITY           SKY/WX    TMP DP  RH WIND       PRES   REMARKS
COLUMBIA       PTCLDY    70  68  93 E6        30.04F
JEFFERSON CITY CLEAR     71  68  90 E3        30.03F
ROLLA          CLEAR     71  66  84 SE10      30.04F
SEDALIA        MOCLDY    73  68  84 E5        30.02F
OSAGE BEACH    CLEAR     72  66  83 CALM      30.03F

$$
MOZ051-052-059>065-280800-
...EAST CENTRAL MISSOURI...

CITY           SKY/WX    TMP DP  RH WIND       PRES   REMARKS
ST LOUIS INTL  PTCLDY    74  70  87 CALM      30.05F
SPIRIT OF STL  CLEAR     71  69  93 CALM      30.03F
ST CHARLES     CLEAR     71  70  96 CALM      30.04F

$$
MOZ072>076-082>087-097>100-106>115-280800-
...SOUTH CENTRAL AND SOUTHEAST MISSOURI...

CITY           SKY/WX    TMP DP  RH WIND       PRES   REMARKS
CAPE GIRARDEAU PTCLDY    75  72  90 CALM      30.03F
FARMINGTON     PTCLDY    70  68  94 CALM      30.09S
POPLAR BLUFF   CLEAR     76  71  85 CALM      30.02F
WEST PLAINS    PTCLDY    69  66  90 CALM      30.08F

$$


USA.gov is the U.S. government's official web portal to all federal, state and local government web resources and services.